N9XP-9 Weather Reports


time (UTC)temp
F
wind
direction
speed
knots
gust
knots
rain 1hr
in
rain 24hr
in
rain mn
in
humidity
%
barometer
mb
20260901211549 93 221 0.0 5.2 0.00 0.00 0.00 61 1012.7
20260901210047 94 122 1.7 6.1 0.00 0.00 0.00 60 1012.8
20260901204545 93 160 0.9 3.5 0.00 0.00 0.00 63 1012.8
20260901203112 93 160 1.7 5.2 0.00 0.00 0.00 61 1012.9
20260901201545 93 152 2.6 7.0 0.00 0.00 0.00 59 1012.9
20260901200043 93 162 3.5 7.8 0.00 0.00 0.00 61 1013.0
20260901194543 93 158 2.6 7.0 0.00 0.00 0.00 57 1013.1
20260901193042 93 147 1.7 7.8 0.00 0.00 0.00 60 1013.1
20260901191539 93 148 2.6 8.7 0.00 0.00 0.00 64 1013.2
20260901190037 91 130 3.5 7.8 0.00 0.00 0.00 65 1013.3
20260901184537 92 136 2.6 7.0 0.00 0.00 0.00 63 1013.5
20260901183041 93 140 0.9 3.5 0.00 0.00 0.00 62 1013.6
20260901181533 92 134 2.6 5.2 0.00 0.00 0.00 64 1013.6
20260901180033 91 153 3.5 7.8 0.00 0.00 0.00 66 1013.7
20260901174531 91 129 0.9 3.5 0.00 0.00 0.00 67 1013.7
20260901173028 91 136 2.6 7.0 0.00 0.00 0.00 69 1013.7
20260901171525 90 167 1.7 7.0 0.00 0.00 0.00 68 1013.9
20260901170025 90 161 0.9 7.0 0.00 0.00 0.00 69 1014.0
20260901164523 89 169 2.6 6.1 0.00 0.00 0.00 69 1014.1
20260901163021 89 315 0.9 2.6 0.00 0.00 0.00 70 1014.1
20260901161517 87 285 0.0 3.5 0.00 0.00 0.00 75 1014.2
20260901160016 86 143 0.9 3.5 0.00 0.00 0.00 75 1014.1
20260901154516 85 185 0.9 5.2 0.00 0.00 0.00 76 1014.0
20260901153010 85 162 1.7 5.2 0.00 0.00 0.00 76 1014.1
20260901151506 83 124 0.9 6.1 0.00 0.00 0.00 79 1014.2
20260901150006 82 126 2.6 5.2 0.00 0.00 0.00 79 1014.2
20260901144501 82 228 1.7 5.2 0.00 0.00 0.00 79 1014.3
20260901143102 82 171 0.0 3.5 0.00 0.00 0.00 81 1014.3
20260901141558 80 165 1.7 5.2 0.00 0.00 0.00 82 1014.2
20260901140100 79 156 1.7 6.1 0.00 0.00 0.00 85 1014.1
20260901134551 78 149 0.9 3.5 0.00 0.04 0.00 86 1014.2
20260901133048 77 173 0.0 3.5 0.00 0.04 0.00 87 1014.2
20260901131547 76 157 0.0 2.6 0.00 0.04 0.00 89 1014.3
20260901130047 76 151 0.9 5.2 0.00 0.04 0.00 89 1014.4
20260901124547 76 154 0.0 2.6 0.00 0.27 0.00 90 1014.5
20260901123045 75 132 0.0 3.5 0.00 0.27 0.00 90 1014.4
20260901121544 75 140 0.0 1.7 0.00 0.27 0.00 91 1014.3
20260901120046 74 130 0.0 0.9 0.00 0.27 0.00 92 1014.0
20260901114540 74 157 0.0 1.7 0.00 0.27 0.00 92 1013.8
20260901113039 74 148 0.0 0.9 0.00 0.27 0.00 92 1013.7
20260901111537 74 131 0.0 0.9 0.00 0.27 0.00 92 1013.5
20260901110037 74 156 0.0 0.9 0.00 0.27 0.00 92 1013.4
20260901104540 74 141 0.0 0.9 0.00 0.27 0.00 92 1013.3
20260901103033 74 112 0.0 0.9 0.00 0.27 0.00 91 1013.3
20260901101531 75 113 0.0 0.9 0.00 0.27 0.00 90 1013.1
20260901100029 75 148 0.0 2.6 0.00 0.27 0.00 90 1013.2
20260901094533 75 130 0.0 1.7 0.00 0.27 0.00 90 1013.3
20260901093027 75 134 0.0 1.7 0.00 0.27 0.00 89 1013.2
20260901091526 75 124 0.0 0.9 0.00 0.27 0.00 89 1013.2
20260901090024 76 200 0.0 1.7 0.00 0.27 0.00 88 1013.1
20260901084523 76 155 0.0 1.7 0.00 0.27 0.00 88 1013.0
20260901083022 76 139 0.0 2.6 0.00 0.27 0.00 87 1013.0
20260901081522 77 144 0.9 4.3 0.00 0.27 0.00 87 1013.0
20260901080022 77 150 0.9 3.5 0.00 0.27 0.00 87 1013.0
20260901074520 76 134 0.0 3.5 0.00 0.27 0.00 87 1013.0
20260901073019 76 133 0.0 0.9 0.00 0.27 0.00 89 1013.0
20260901071518 76 134 0.0 0.9 0.00 0.27 0.00 89 1012.9
20260901070016 76 143 0.0 0.9 0.00 0.27 0.00 89 1012.9
20260901064515 76 136 0.0 0.9 0.00 0.27 0.00 89 1012.8
20260901063019 76 141 0.0 0.9 0.00 0.27 0.00 89 1012.8
20260901061514 76 150 0.0 0.9 0.00 0.27 0.00 90 1012.7
20260901060013 76 112 0.0 0.9 0.00 0.27 0.00 90 1012.7
20260901054511 76 135 0.0 0.9 0.00 0.27 0.00 89 1012.8
20260901053008 77 134 0.0 0.9 0.00 0.27 0.00 88 1012.8
20260901051512 77 136 0.0 0.9 0.00 0.27 0.00 87 1012.7
20260901050002 78 144 0.0 1.7 0.00 0.27 0.27 87 1012.8
20260901044502 78 131 0.9 2.6 0.00 0.27 0.27 87 1012.8
20260901043000 78 165 0.9 3.5 0.00 0.27 0.27 87 1012.9
20260901041611 78 167 0.0 2.6 0.00 0.27 0.27 87 1012.9
20260901040100 78 150 0.0 0.9 0.00 0.27 0.27 86 1013.0
20260901034600 78 192 0.0 0.9 0.00 0.27 0.27 86 1013.1
20260901033101 79 122 0.0 2.6 0.00 0.27 0.27 85 1013.0
20260901031605 79 165 0.0 1.7 0.00 0.27 0.27 86 1013.1
20260901030058 78 225 0.0 0.0 0.00 0.27 0.27 86 1013.1
20260901024558 78 117 0.0 0.9 0.00 0.28 0.27 86 1013.1
20260901023057 78 144 0.0 0.9 0.00 0.28 0.27 86 1013.1
20260901021556 78 146 0.0 0.0 0.00 0.28 0.27 86 1013.6
20260901020055 79 146 0.0 0.0 0.00 0.28 0.27 84 1013.3
20260901014600 79 146 0.0 0.0 0.00 0.28 0.27 83 1013.1
20260901013057 80 238 0.0 1.7 0.00 0.28 0.27 82 1012.8
20260901011556 80 167 0.0 0.9 0.00 0.28 0.27 81 1012.8
20260901010054 80 141 0.0 2.6 0.00 0.28 0.27 80 1012.7
20260901004553 81 143 0.0 2.6 0.00 0.28 0.27 78 1012.9
20260901003053 82 143 0.9 3.5 0.00 0.28 0.27 76 1013.1
20260901001558 83 139 0.9 1.7 0.00 0.28 0.27 75 1012.9
20260901000056 83 169 0.0 2.6 0.00 0.28 0.27 76 1012.5
20260831234613 82 150 0.0 2.6 0.00 0.28 0.27 77 1012.2
20260831233103 83 118 0.0 3.5 0.00 0.28 0.27 79 1011.7
20260831231548 84 130 0.9 3.5 0.00 0.28 0.27 74 1013.1
20260831230047 84 209 0.0 3.5 0.00 0.28 0.27 73 1012.7
20260831224548 85 162 0.9 3.5 0.00 0.30 0.27 71 1012.4
20260831223047 85 162 0.0 1.7 0.00 0.30 0.27 71 1012.5
20260831221546 85 136 0.0 1.7 0.00 0.30 0.27 69 1012.6
20260831220046 86 158 0.0 2.6 0.00 0.30 0.27 68 1012.5
20260831214551 86 145 0.9 2.6 0.00 0.31 0.27 67 1012.3
20260831213044 85 158 2.6 5.2 0.00 0.31 0.27 68 1012.1